Regional Weather Roundup
Issued by NWS

Home | Current Version | Previous Version | Graphics & Text | Print | Product List | Glossary On
Versions: 1 2 3 4 5 6 7 8 9 10 11 12 13 14 15 16 17 18 19 20 21 22 23 24 25 26 27 28 29 30 31 32 33 34 35 36 37 38 39 40 41 42 43 44 45 46 47 48 49 50
000
ASUS43 KDTX 302010
RWRMI
MICHIGAN HOURLY REGIONAL WEATHER ROUNDUP
NATIONAL WEATHER SERVICE DETROIT/PONTIAC MI
400 PM EDT SAT APR 30 2016

NOTE: "FAIR" INDICATES FEW OR NO CLOUDS BELOW 12,000 FEET WITH NO
SIGNIFICANT WEATHER AND/OR OBSTRUCTION TO VISIBILITY.

MIZ047>049-052>055-059>063-066>070-074>076-081>083-302100-
SOUTHEAST LOWER MICHIGAN

CITY           SKY/WX    TMP DP  RH WIND       PRES   REMARKS
ADRIAN         LGT RAIN  49  44  83 E9        30.05F
ALMA           CLOUDY    57  35  44 E6        30.07F
ANN ARBOR      LGT RAIN  51  44  77 E10       30.06F
BAD AXE        CLOUDY    55  37  50 E9        30.11F
CARO           CLOUDY    58  35  42 E9G16     30.08F
DETROIT CITY   CLOUDY    51  43  74 SE10      30.10F
DETROIT        LGT RAIN  52  44  74 E9        30.09F
FLINT          CLOUDY    60  38  43 SE8G25    30.06F
GROSSE ILE     LGT RAIN  48  45  87 E6        30.08F
HILLSDALE      LGT RAIN  47  44  88 E15       30.03F
HOWELL         DRIZZLE   54  38  55 SE13      30.06F

CITY           SKY/WX    TMP DP  RH WIND       PRES   REMARKS
JACKSON        LGT RAIN  50  44  80 E9        30.03F
LAMBERTVILLE   LGT RAIN  47  44  90 E8        30.07F
LANSING        LGT RAIN  55  36  48 E12       30.06F
LAPEER         FAIR      57  36  44 E8        30.08S
MASON          LGT RAIN  51  40  65 E6        30.05F
MONROE         LGT RAIN  46  44  93 E9        30.07F
MT. CLEMENS    CLOUDY    52  46  78 SE13      30.08F
PONTIAC        CLOUDY    55  38  52 SE9       30.06F
PORT HOPE        N/A     45  36  70 NE7       30.13F
PORT HURON     CLOUDY    55  41  58 NE9       30.09F
TRI CITIES     CLOUDY    56  37  49 NE15      30.10F
MIDLAND        FAIR      56  33  42 E10       30.09F
TROY           CLOUDY    55  41  59 E7        30.10F
SAGINAW HB     CLOUDY    55  37  50 N13       30.08S
$$
MIZ043>046-050>051-056>058-064>065-071>073-077>080-302100-
SOUTHWEST LOWER MICHIGAN

CITY           SKY/WX    TMP DP  RH WIND       PRES   REMARKS
BATTLE CREEK   LGT RAIN  48  41  76 E9        30.03F
BENTON HARBOR  LGT RAIN  49  44  83 E14       29.97F
BIG RAPIDS     CLOUDY    55  31  39 E12G18    30.06F
COLDWATER      LGT RAIN  49  43  82 E12G20    30.01F
FREMONT        FAIR      55  28  35 E9G16     30.05F
HOLLAND        LGT RAIN  50  43  77 E10       30.03F
GRAND RAPIDS   LGT RAIN  54  41  61 E8        30.04F
IONIA          CLOUDY    55  33  44 E8        30.04F
KALAMAZOO      LGT RAIN  49  41  74 VRB6      30.03F
LUDINGTON      CLOUDY    57  34  41 E9        30.06F
MARSHALL       RAIN      49  43  82 E6        30.03F
MOUNT PLEASANT CLOUDY    56  35  44 E9        30.07F
MUSKEGON       LGT RAIN  54  33  45 E13G22    30.04F
SOUTH HAVEN    LGT RAIN  47  44  87 E10G16    30.00F
$$
MIZ016>042-302100-
NORTHERN LOWER MICHIGAN

CITY           SKY/WX    TMP DP  RH WIND       PRES   REMARKS
ALPENA         MOSUNNY   57  25  29 E13       30.15F
BEAVER ISLAND  CLOUDY    55  26  31 NE9G18    30.15S
BELLAIRE       CLOUDY    63  25  24 NE5G20    30.08F
CADILLAC       CLOUDY    56  33  40 E9        30.06F
CHARLEVOIX     CLOUDY    48  35  61 N9        30.14F
FRANKFORT      CLOUDY    54  36  50 N9        30.08F
GAYLORD        CLOUDY    59  27  29 VRB6      30.09F
GRAYLING       CLOUDY    61  32  33 NE8       30.09F
HARBOR SPRINGS MOSUNNY   59  27  28 E15G21    30.12R
HOUGHTON LAKE  CLOUDY    57  31  37 E13       30.09F
MANISTEE       CLOUDY    55  36  47 E7        30.07F
OSCODA         CLOUDY    51  30  44 NE8       30.15S
PELLSTON       MOSUNNY   59  25  27 E16G26    30.14F
ROGERS CITY    CLOUDY    51  30  44 E8        30.17F
TRAVERSE CITY  CLOUDY    52  31  44 N10       30.08F
$$
MIZ007>008-015-302100-
EASTERN UPPER MICHIGAN

CITY           SKY/WX    TMP DP  RH WIND       PRES   REMARKS
KINROSS          N/A     59  25  27 E10G17    30.15F
MACKINAC ISLAN MOSUNNY   53  24  32 E5        30.16F
NEWBERRY       MOSUNNY   57  32  38 N12G17    30.15S
S. S. MARIE    SUNNY     60  27  28 S8        30.14F
MUNISING         N/A     42  36  79 NE13      30.21S
$$
MIZ004>006-011>014-085-302100-
CENTRAL UPPER MICHIGAN

CITY           SKY/WX    TMP DP  RH WIND       PRES   REMARKS
MANISTIQUE     CLOUDY    54  27  34 S6        30.15S
ESCANABA       CLOUDY    55  28  35 SE12      30.14S
MENOMINEE      CLOUDY    50  30  46 E9        30.14S
SAWYER-GWINN   SUNNY     45  34  65 NE18      30.21S
$$
MIZ001>003-009>011-084-302100-
WESTERN UPPER MICHIGAN

CITY           SKY/WX    TMP DP  RH WIND       PRES   REMARKS
IRON MOUNTAIN  CLOUDY    56  30  37 NE12      30.13R
HOUGHTON       MOSUNNY   50  32  50 NE9G21    30.23S
COPPER HARBOR    N/A     42  36  79 NE8       30.25F
IRONWOOD         N/A     48  30  49 NE10G22   30.17F
$$

ABBREVIATIONS USED IN REMARKS
   TC - TEMPERATURE IN CELSIUS
  WCI - WIND CHILL INDEX
   HX - HEAT INDEX
  VSB - VISIBILITY




USA.gov is the U.S. government's official web portal to all federal, state and local government web resources and services.